Location: Bremen
(53.0793°N, 8.8017°E)
Time: 19:04:24
(UTC+02:00)

Transit 2A Rocket - Pass Details

Date: 20 June 2024
Orbit: 582 x 910 km, 66.7° (Epoch: 20 July)

Event Time Altitude Azimuth Distance (km) Brightness Sun altitude
Rises 22:50:08 0° 220° (SW) 3,131 8.0 -6.3°
Reaches altitude 10° 22:52:23 10° 221° (SW) 2,263 7.3 -6.5°
Maximum altitude 22:57:37 84° 311° (NW) 812 5.2 -6.9°
Drops below altitude 10° 23:03:24 10° 40° (NE) 2,491 7.9 -7.4°
Sets 23:05:59 0° 41° (NE) 3,470 8.6 -7.6°
